Location: K�ln
(50.9455°N, 6.9544°E)
Time: 10:29:36
(UTC+02:00)

ISS - Pass Details

Date: 06 January 2018
Orbit: 402 x 409 km, 51.6° (Epoch: 21 August)

Event Time Altitude Azimuth Distance (km) Brightness Sun altitude
Exits shadow 06:47:04 39° 284° (WNW) 654 -3.3 -15.9°
Maximum altitude 06:48:13 79° 6° (N) 437 -3.8 -15.7°
Drops below altitude 10° 06:51:37 10° 93° (E) 1,518 0.3 -15.2°
Sets 06:53:44 0° 94° (E) 2,385 1.7 -14.9°
